Location: Dalton
(42.4737°N, 73.1662°W)
Time: 18:56:50
(UTC+00:00)

Envisat - Pass Details

Date: 26 September 2024
Orbit: 762 x 764 km, 98.3° (Epoch: 09 October)

Event Time Altitude Azimuth Distance (km) Brightness Sun altitude
Rises 07:12:42 0° 24° (NNE) 3,234 7.0 -37.2°
Reaches altitude 10° 07:15:18 10° 35° (NE) 2,303 6.2 -36.8°
Enters shadow 07:18:35 27° 73° (ENE) 1,453 4.8 -36.4°
